O3B FM3

Last updated on Fri Dec 29 2023 00:03:04 GMT+0000 (Coordinated Universal Time)

1 40079U 14038A 23361.99918243 -.00000024 00000+0 00000+0 0 9991 2 40079 0.0540 7.4806 0001702 330.1375 22.3728 5.00116701173004
UTC large
Height (km)
Speed (km/s)
/
Latitude / Longitude
Inclination (degrees)
Orbital Period (minutes)
Azimuth
Elevation
Range (km)
Doppler Factor

Next 0 passes for location: London (51.5072 / 0.1276)

Sorry there are no passes over London.
O3B FM3